Dewpoint
51 51 51 51 53 53 53 53 52 52 52 52 53 53 53 53 53 52 52 53 53 53 52 53 53 53 51 51 51 52 53 49 48 46 44 42 46 49 56 54 57 58 56 43 34 27 24 29 28 29 29 29 30 31 33 32 25 21 21 18 15 15 11 19 12 12 10 10 10 11 9 7 6 20 52 53 54 57 58 59 59 62 62 62 63 65 66 66
51 51 51 51 52 52 52 52 52 52 52 52 52 52 52 53 53 53 52 52 53 53 53 53 53 52 51 51 52 53 51 49 46 46 45 46 55 52 55 54 60 58 52 38 30 23 25 25 27 28 28 28 28 28 28 28 22 20 21 18 13 16 15 20 15 14 11 11 12 12 11 9 7 13 33 51 52 53 54 58 60 59 62 63 64 65 66 66
51 51 50 51 51 52 52 52 52 52 52 52 53 53 52 52 52 53 52 52 52 52 52 52 53 51 51 52 52 53 49 46 45 44 43 56 53 56 58 57 61 57 38 36 30 22 24 23 24 25 26 26 26 26 21 20 22 19 19 16 16 17 17 19 16 13 12 13 11 11 10 7 7 8 12 47 50 53 53 55 56 59 60 62 63 65 65 66
51 50 51 51 51 51 51 52 52 51 52 53 53 53 53 52 52 53 52 52 52 52 52 52 52 51 51 51 52 50 47 44 37 39 44 57 58 56 59 57 62 57 35 30 29 22 24 21 21 22 22 24 24 21 21 19 18 16 17 15 15 15 14 14 15 14 14 14 13 12 10 8 7 8 36 50 48 46 44 53 56 58 60 62 63 64 65 65
51 50 51 51 51 51 51 51 51 51 53 53 53 53 52 52 53 53 53 53 52 52 52 52 51 51 51 51 52 50 45 30 33 40 43 61 59 57 58 58 60 55 43 25 18 18 18 18 22 25 22 22 21 20 18 19 16 14 15 16 15 13 11 12 13 14 14 15 10 10 9 7 8 9 43 41 35 38 40 47 56 60 62 62 63 64 65 64
50 51 51 52 51 51 51 51 51 51 52 53 53 52 52 52 53 53 52 52 52 52 52 52 51 51 51 52 49 48 41 27 33 40 59 62 61 59 60 59 59 50 23 20 19 17 15 18 18 21 23 22 21 19 20 18 17 15 16 12 12 12 11 12 12 13 13 12 10 7 7 7 6 10 10 28 28 24 33 52 58 61 62 63 64 64 64 64
51 51 52 51 51 51 51 51 51 52 52 52 52 52 52 53 53 52 52 52 52 52 52 52 52 51 52 52 47 46 32 27 41 39 59 65 63 59 60 61 60 36 21 17 18 17 24 22 21 24 19 17 18 19 20 15 13 16 14 14 13 11 11 12 11 12 10 9 8 9 11 8 6 5 20 47 54 58 59 60 61 62 62 63 63 64 64 64
50 50 51 50 51 51 51 52 52 51 52 52 52 51 52 52 52 52 52 51 51 51 51 51 51 51 52 46 44 40 40 34 34 40 66 64 61 59 59 46 38 31 30 21 16 18 24 18 19 26 23 18 19 19 16 16 9 13 13 13 12 11 10 9 8 7 8 9 9 9 7 7 8 5 47 52 57 59 60 61 61 62 62 63 63 63 64 61
50 50 50 50 51 52 52 52 52 52 52 52 51 51 52 52 52 52 52 52 51 51 51 51 50 51 52 46 43 20 12 35 43 53 58 59 58 53 46 43 34 35 30 21 16 16 19 19 26 24 22 18 14 15 13 7 10 10 12 10 8 5 5 5 6 6 6 8 10 9 7 6 5 39 50 53 58 60 60 60 61 62 62 62 63 63 61 60
50 50 51 51 52 52 51 52 52 52 52 51 52 52 52 51 51 51 51 52 51 51 52 51 50 51 47 45 38 12 10 28 54 53 53 56 51 47 39 39 33 27 26 21 17 21 17 20 22 26 19 19 13 14 9 7 6 8 9 7 5 6 11 11 8 7 8 8 7 6 5 4 18 35 21 54 60 60 60 60 61 61 61 62 62 61 61 60
50 50 50 50 51 51 51 51 51 51 51 51 51 52 51 51 51 51 51 51 51 51 52 52 51 50 45 45 27 13 17 37 51 47 47 50 46 41 34 35 31 29 23 22 18 19 19 27 30 26 25 24 14 15 9 6 8 11 12 13 11 11 8 9 7 6 7 5 5 5 4 6 13 35 29 58 61 60 60 60 60 61 61 60 60 60 60 60
50 51 50 50 50 51 51 51 50 51 51 51 51 51 51 51 51 51 51 51 51 51 50 50 53 50 48 44 37 23 33 40 49 45 39 41 40 38 32 34 29 26 22 21 21 22 28 30 27 24 18 24 20 16 13 13 12 13 13 9 9 8 7 8 4 6 6 5 5 4 4 3 8 11 20 60 61 60 60 60 60 60 59 59 59 59 60 60
50 51 50 50 50 51 52 51 51 51 51 51 51 51 52 52 51 51 51 51 51 51 50 50 52 50 45 32 36 40 38 41 45 43 42 33 32 31 28 29 28 24 23 21 21 22 28 30 29 26 26 24 23 12 13 14 13 12 10 10 7 8 8 7 9 8 6 7 5 4 5 7 6 6 31 61 61 60 59 59 60 59 59 59 59 58 59 59
50 50 50 50 50 50 51 52 52 51 51 51 52 52 51 51 51 51 51 51 51 52 53 52 49 47 43 32 31 37 40 42 41 40 40 40 23 24 24 24 23 22 22 21 23 26 25 28 28 28 26 22 18 17 12 15 14 9 11 12 11 7 9 7 9 7 5 8 5 6 8 5 6 7 29 61 61 60 58 59 59 59 59 59 58 58 58 58
50 50 50 50 50 50 50 51 51 51 51 51 51 51 51 51 51 51 51 51 52 52 51 53 50 47 41 41 43 44 55 37 35 34 37 29 22 22 24 23 22 22 23 22 26 29 26 26 21 20 20 21 20 13 11 14 16 16 8 8 15 7 11 11 20 9 6 7 8 4 12 5 4 6 59 61 60 59 58 59 59 59 59 58 58 58 58 58
50 50 50 50 50 50 50 50 51 51 51 51 50 51 51 51 51 51 51 51 51 51 51 50 49 47 40 34 34 44 43 40 39 39 34 26 21 20 22 21 22 22 24 23 26 26 26 22 22 19 16 14 14 18 16 13 15 20 9 18 12 17 15 16 13 14 8 9 6 3 7 9 6 9 58 61 60 59 59 59 59 59 59 58 58 58 58 58
50 50 50 50 50 50 50 50 51 51 51 51 51 51 51 51 51 49 50 52 52 52 51 46 48 47 26 29 33 32 33 36 38 33 29 27 21 22 19 21 22 22 24 24 26 24 22 22 24 20 25 15 20 15 9 15 14 16 22 12 20 15 17 17 17 17 10 6 3 4 4 10 14 39 59 61 60 59 59 58 59 59 59 58 58 58 58 58
50 50 50 50 50 50 50 50 50 51 51 52 52 51 50 50 50 51 52 52 51 50 50 50 47 35 25 25 19 28 35 32 29 33 29 27 22 23 23 23 22 22 21 16 17 21 20 16 25 16 18 27 23 18 14 10 13 15 15 16 18 22 17 17 16 15 18 14 6 7 9 17 28 49 58 60 60 59 58 58 59 59 59 59 58 58 58 58
49 50 50 50 50 50 50 50 50 51 51 52 51 51 52 51 51 50 47 48 39 28 25 32 28 18 11 16 21 27 28 31 26 32 30 24 25 25 26 21 18 18 21 18 16 15 18 22 25 17 12 15 14 13 11 15 17 13 12 13 19 19 18 16 15 17 22 10 4 8 6 12 34 49 55 59 60 59 58 59 59 59 59 59 58 58 58 58
49 49 49 49 50 50 50 50 50 51 52 50 48 48 49 40 39 42 47 47 42 33 32 32 33 21 28 29 29 29 30 29 25 25 26 33 23 23 22 18 17 17 18 21 22 22 27 14 12 13 16 20 24 22 21 17 17 21 20 19 18 18 18 17 15 16 22 18 14 10 15 22 36 50 53 57 58 58 58 58 58 58 59 58 58 58 58 58
50 49 49 49 50 50 50 50 50 50 52 49 48 43 28 32 29 29 39 45 44 42 38 37 35 30 29 30 31 31 31 31 27 24 23 32 23 22 21 17 16 20 19 25 23 29 26 13 16 19 21 25 27 29 30 28 27 20 21 22 18 18 17 16 15 23 28 16 18 21 19 21 30 43 47 52 56 56 57 57 57 58 58 58 58 58 58 58
49 49 49 49 50 50 50 50 50 50 50 48 46 39 36 34 32 33 35 33 35 42 42 40 38 35 35 33 34 32 33 32 31 32 24 23 20 17 16 15 15 16 23 22 18 19 17 15 21 24 27 31 33 31 30 24 26 26 23 21 17 14 15 16 22 29 29 25 20 22 19 20 26 29 39 50 54 52 54 57 58 58 58 58 58 58 58 58
49 49 50 49 49 50 50 50 50 51 49 46 43 43 36 35 40 39 38 35 34 36 39 40 39 38 37 39 35 34 32 31 29 28 20 21 17 17 14 13 18 23 25 24 16 17 15 15 21 24 30 27 25 32 32 29 28 24 19 14 12 17 16 13 26 30 29 26 21 21 19 23 28 32 34 38 43 48 51 54 56 58 58 58 58 58 58 58
49 49 49 49 49 49 50 50 50 48 46 45 43 40 41 41 41 40 37 35 34 36 37 38 38 38 38 35 36 34 32 32 30 29 29 18 16 17 13 13 15 17 13 18 18 14 12 18 29 28 29 26 24 28 28 23 21 27 24 18 16 20 20 16 19 29 32 29 31 23 22 21 23 26 30 35 43 48 50 52 52 55 56 56 57 57 58 58
49 49 49 49 49 49 50 50 45 45 46 45 45 45 43 42 42 40 37 35 34 34 38 36 39 37 37 38 36 33 33 28 29 28 22 18 15 14 13 15 13 12 12 19 17 16 13 19 28 25 28 26 24 22 26 24 16 22 28 21 22 23 23 24 28 23 22 18 27 20 17 16 21 24 27 33 41 46 48 51 50 53 53 54 55 56 56 57
49 49 49 49 49 49 49 39 39 45 44 35 33 38 42 42 44 41 38 32 29 33 33 30 38 31 36 34 35 32 29 27 28 27 20 18 21 15 17 14 14 14 17 18 15 20 16 26 25 23 27 28 24 23 27 25 20 16 21 26 27 25 27 26 23 22 16 16 24 29 17 12 22 23 25 28 36 43 44 49 50 49 50 51 53 54 55 55
49 48 49 49 49 49 30 26 44 44 26 24 31 41 42 44 47 41 31 25 21 31 31 31 31 27 31 31 34 25 22 24 25 24 22 29 16 21 13 13 15 17 18 24 21 12 21 24 28 30 29 27 24 21 27 23 18 14 22 27 28 26 23 25 27 24 19 28 31 27 22 17 15 20 26 29 32 37 41 44 47 48 49 50 51 53 53 54
48 49 49 49 48 48 42 42 42 37 27 26 41 41 40 45 45 40 25 8 7 22 31 22 25 27 28 26 26 23 26 22 22 22 22 21 17 16 14 15 11 12 19 20 11 21 26 21 26 25 24 22 21 24 30 23 18 18 28 26 25 23 27 27 24 24 25 21 14 22 25 16 17 23 28 29 30 32 36 41 44 46 48 49 50 52 53 54
49 49 48 48 48 48 45 45 44 39 38 41 41 38 41 46 39 30 23 8 16 24 23 26 25 25 23 25 24 23 23 22 18 22 21 20 19 15 16 15 13 15 20 20 15 23 24 21 23 24 21 18 22 24 26 23 18 25 30 28 29 30 31 29 24 22 22 15 13 20 26 13 16 23 23 27 23 23 26 30 37 44 46 47 49 50 52 53
49 49 48 48 47 47 46 46 45 44 44 42 41 41 44 41 33 25 14 6 23 22 25 22 23 23 19 23 24 24 23 23 22 20 20 17 19 17 18 17 15 18 18 27 17 18 21 38 34 22 20 21 25 29 26 20 26 28 23 17 18 22 24 28 23 24 21 9 15 22 26 16 13 21 23 24 25 26 27 29 29 33 43 46 48 50 51 52
49 48 48 48 44 41 40 30 37 44 45 44 42 40 34 28 24 16 12 17 25 26 26 22 19 18 15 15 18 17 22 20 20 18 20 19 18 18 18 16 21 22 25 25 20 24 22 20 23 22 30 21 20 14 16 20 24 22 21 18 16 17 20 18 20 19 14 11 17 21 24 20 12 18 25 29 30 31 31 31 30 31 38 45 48 49 50 51
48 48 48 47 46 47 33 23 24 34 34 41 44 32 23 14 20 14 12 25 22 21 22 21 23 20 20 20 16 16 20 18 20 18 16 17 20 16 16 17 20 16 15 16 14 26 21 20 20 20 39 15 15 13 13 13 19 18 20 18 16 13 11 8 15 9 9 13 18 25 26 18 19 21 25 28 33 36 37 34 33 31 32 40 47 49 50 52
48 48 49 48 49 47 45 37 36 38 39 44 39 30 17 14 8 19 20 23 13 27 24 24 22 19 19 18 18 18 20 19 20 17 17 19 17 17 17 17 20 21 14 22 15 18 18 24 22 22 18 26 15 15 10 9 12 14 14 18 14 7 5 4 8 9 15 18 21 24 25 19 22 25 29 34 37 40 43 44 43 39 39 44 48 49 51 51
48 48 46 45 46 47 46 45 44 41 41 44 36 29 19 3 8 37 18 22 17 26 22 21 17 17 21 20 20 19 19 20 18 19 17 20 18 20 19 17 21 20 25 22 13 16 9 12 16 19 17 24 15 15 12 19 13 10 14 13 16 14 7 2 12 5 11 19 20 23 18 16 17 24 29 32 36 42 45 46 47 48 48 48 49 50 50 50
48 46 44 43 45 46 46 46 43 43 43 37 29 25 17 14 20 20 28 30 24 23 20 20 15 19 18 24 24 22 21 22 24 19 20 17 18 22 20 17 21 24 26 15 21 16 12 15 20 22 20 16 12 16 16 13 13 17 19 12 14 12 19 8 16 19 19 15 14 15 14 20 23 28 34 35 39 44 45 47 48 47 48 49 49 49 49 50
45 40 41 40 44 45 45 46 43 44 38 33 28 20 17 17 11 24 16 27 22 19 18 13 21 21 23 25 29 23 25 20 23 19 23 18 21 20 21 22 19 18 18 19 21 15 15 13 20 21 18 14 13 15 13 9 13 17 10 13 16 20 21 17 15 20 14 15 9 14 18 23 27 26 28 35 41 43 44 45 46 47 48 48 48 48 49 49
40 42 38 41 43 47 46 45 42 43 38 31 25 21 25 26 19 28 33 22 21 19 15 10 17 16 21 21 26 26 25 25 29 20 18 23 20 23 23 25 21 18 16 21 20 23 16 18 23 12 12 13 16 13 13 15 14 11 10 12 22 25 25 20 11 11 7 5 9 16 13 20 22 19 28 33 38 41 43 44 44 45 46 47 48 49 50 51
41 41 44 45 43 47 46 43 42 39 34 30 25 35 31 21 29 29 28 26 23 22 16 14 18 19 21 22 23 27 25 26 30 20 22 24 23 26 27 23 21 18 17 22 16 22 20 13 15 16 14 14 19 14 13 16 14 12 12 15 13 10 10 13 17 6 6 5 3 14 17 19 21 23 25 27 35 39 42 42 43 44 44 46 47 49 51 51
41 40 27 36 41 46 44 42 41 35 30 26 23 24 33 24 30 33 31 27 25 21 18 18 15 19 22 22 25 28 26 25 27 28 21 27 20 27 23 23 19 20 19 19 17 20 26 15 18 16 15 16 19 16 10 19 13 14 14 12 21 21 22 12 13 20 14 2 5 14 17 12 23 25 27 26 33 38 40 42 43 43 44 45 46 47 49 50
37 22 26 38 47 45 44 43 36 30 25 21 25 26 31 32 32 32 31 29 25 20 22 21 18 17 20 21 26 21 23 29 28 27 25 31 24 30 26 30 23 18 23 19 19 27 15 23 11 16 17 15 11 16 18 14 11 10 12 11 19 20 22 17 20 13 12 7 4 7 8 17 23 27 30 29 32 37 41 42 42 43 44 45 46 46 47 48
38 28 29 38 42 47 44 37 27 25 23 28 31 30 32 28 31 31 29 30 26 24 21 21 22 18 20 16 16 19 22 27 28 26 25 25 24 20 28 29 27 20 23 19 21 25 19 15 18 24 16 14 16 19 15 13 12 14 17 14 17 13 11 9 7 20 19 13 5 7 7 18 23 34 33 32 34 40 42 43 43 44 45 45 44 46 46 46
33 27 32 39 39 43 39 28 32 32 28 27 25 31 27 39 30 30 29 27 26 24 20 22 20 19 21 17 16 18 21 20 23 26 21 22 22 23 18 21 25 21 21 18 19 26 22 24 21 14 18 13 15 14 22 16 16 17 17 18 24 22 18 15 8 14 18 20 17 18 13 18 28 33 36 36 39 41 42 43 44 44 44 44 44 45 45 45
33 32 38 40 39 42 35 28 32 30 27 31 31 26 29 27 28 26 24 23 21 22 22 18 20 18 19 17 19 18 19 20 19 22 20 21 21 24 25 25 24 25 22 23 15 25 46 19 19 11 21 24 22 19 24 23 19 16 17 24 20 16 18 17 18 20 17 19 13 12 11 17 26 32 36 36 38 39 40 42 43 43 43 44 44 45 45 45
34 35 37 38 39 40 32 27 27 26 30 34 30 29 27 28 26 23 22 22 23 25 24 24 23 21 21 23 23 25 26 15 22 22 23 24 24 24 23 28 28 25 26 27 27 32 24 21 19 14 14 15 17 19 16 21 17 17 15 20 23 23 24 24 22 22 18 21 18 14 8 13 27 34 37 38 40 41 41 41 42 43 43 44 44 44 44 44
35 36 38 41 41 37 33 33 29 24 28 30 26 25 26 25 23 26 24 24 25 26 26 24 25 27 27 28 28 27 26 20 21 25 27 30 29 27 22 23 34 33 43 43 40 26 21 24 24 14 10 6 4 5 8 11 14 16 22 23 23 18 18 15 13 15 12 16 17 12 8 20 24 35 37 38 39 39 39 40 41 41 43 43 43 43 43 44
31 24 31 35 38 40 35 37 33 30 25 26 23 27 29 27 28 25 25 25 26 27 24 24 24 28 27 29 27 27 25 26 25 26 25 26 27 22 25 20 25 35 46 44 42 32 25 28 26 22 17 13 16 18 20 26 22 17 18 21 21 24 24 20 17 12 12 15 14 18 21 22 28 30 31 33 35 38 39 40 41 42 41 41 41 42 43 43
32 30 27 28 33 37 34 31 31 29 27 30 24 28 26 28 27 25 26 26 25 27 26 22 21 24 23 26 25 26 28 28 26 26 25 26 24 30 29 21 20 33 40 37 36 27 26 23 25 23 21 19 19 16 18 23 19 19 20 20 20 23 24 21 10 9 18 18 11 21 24 25 26 25 27 27 28 31 35 34 35 38 38 39 40 41 46 43
26 25 32 32 28 28 31 30 34 29 29 28 26 29 27 26 25 24 25 26 27 26 25 22 20 20 22 26 26 21 24 26 25 23 27 26 27 25 20 22 19 27 32 25 34 30 27 22 25 28 22 21 22 20 19 20 20 21 21 23 21 24 23 18 18 20 20 14 15 20 24 23 23 25 27 28 29 30 31 32 32 33 35 36 39 40 40 41
30 28 31 35 27 29 36 35 36 33 30 31 26 26 25 25 25 25 25 27 26 24 25 19 20 19 20 25 27 23 23 22 19 26 25 25 26 25 22 25 24 20 20 28 28 31 25 21 25 25 23 23 23 23 23 20 22 23 26 26 25 25 24 25 24 24 21 18 22 24 24 23 24 25 27 29 31 32 33 35 35 36 36 37 36 36 37 38
27 27 27 32 31 28 30 35 36 35 31 33 28 27 24 25 26 25 24 25 22 24 27 22 19 19 19 19 23 22 22 26 26 20 26 25 26 25 23 23 20 21 20 22 28 27 29 21 30 27 26 25 24 24 21 21 25 25 25 26 25 25 24 24 24 25 25 23 23 24 24 23 25 27 28 29 31 31 32 33 34 35 36 37 36 36 37 37
31 31 31 27 23 25 32 32 34 33 31 32 30 31 27 25 26 27 20 22 24 26 27 23 22 22 18 19 21 22 25 26 26 25 25 26 22 28 22 25 20 23 21 22 27 27 29 22 28 27 23 20 23 24 23 25 25 25 25 26 26 24 21 24 21 24 21 20 22 22 21 19 24 27 26 26 27 28 29 31 33 34 36 37 37 37 38 38
34 33 32 26 21 27 22 24 32 33 29 32 33 32 30 26 24 28 21 18 20 21 25 27 25 23 20 20 19 20 21 26 26 23 24 25 27 26 26 23 21 23 22 21 26 25 26 23 19 19 19 16 21 23 22 22 20 17 18 23 26 25 26 25 25 25 25 23 20 20 20 22 24 30 24 24 24 25 26 28 29 30 32 36 37 37 38 38